[[{"header":{"parameterUnit":"m.s-1","parameterCategory":2,"la1":30.2991,"la2":30.254,"lo1":-89.0895,"lo2":-89.0444,"dy":0.0017,"dx":0.0017,"nx":28,"ny":28,"refTime":"2025-05-23T09:00:00:Z","depth":"0","parameterNumber":2,"parameterNumberName":"U-component_of_CURRENTS"},"data":[0,0,0,0,0,0,0,0,0,0,0,0,0,0,0,0,0,0,0,0,0,0,0,0,0,0,0,0,0,0,0,0,0,0,0,0,0,0,0,0,0,0,0,0,0,0,0,0,0,0,0,0,0,0,0,0,0,0,0.2513,0.2514,0,0.2554,0.2554,0.2554,0.2539,0.2539,0.2538,0.2538,0.2538,0.2539,0.2539,0,0,0,0,0,0,0,0,0,0,0,0,0,0.2295,0.2299,0.2513,0.2514,0.2515,0.2554,0.2554,0.2554,0.2539,0.2539,0.2538,0.2538,0.2538,0.2539,0.2539,0,0,0,0,0,0,0,0,0,0,0,0,0,0.2363,0.2301,0.2513,0.2517,0.2518,0.2554,0.2554,0.2554,0.2539,0.2539,0.2538,0.2538,0.2538,0.2539,0.2539,0.2554,0,0,0.2541,0.2541,0,0,0,0,0,0,0,0,0.2359,0.237,0.2515,0.2517,0.2518,0.2546,0.2478,0.2554,0.2539,0.2525,0.2538,0.2537,0.2541,0.2542,0.2543,0.2554,0.2554,0.2541,0.2541,0.2541,0.2542,0,0,0,0,0,0,0,0.2355,0.2368,0.2523,0.2516,0.2518,0.2473,0.2483,0.2491,0.253,0.2526,0.2527,0.2541,0.2541,0.2542,0.2543,0.2554,0.2541,0.2541,0.2542,0.2542,0.2552,0.2551,0,0,0,0,0,0,0.237,0.2365,0.2522,0.2525,0.2442,0.2479,0.2489,0.2533,0.2531,0.2533,0.2541,0.254,0.2542,0.2542,0.2543,0.2521,0.2541,0.2542,0.2542,0.2552,0.2552,0.2551,0,0,0,0,0,0,0.2366,0.2385,0.252,0.2448,0.2463,0.2485,0.2533,0.2534,0.2533,0.2545,0.2543,0.254,0.2541,0.2542,0.2554,0.2522,0.2542,0.2543,0.2552,0.2552,0.2552,0.2502,0,0,0,0,0,0,0.236,0.2384,0.2405,0.2451,0.2468,0.2546,0.2534,0.2535,0.2546,0.2544,0.2543,0.2543,0.2541,0.2554,0.2555,0.2523,0.2543,0.2552,0.2552,0.2552,0.2504,0.25,0.2497,0,0,0,0,0,0.2352,0.2393,0.2407,0.2425,0.2504,0.2547,0.2551,0.2558,0.2547,0.2552,0.2552,0.2542,0.2553,0.2555,0.2556,0.2523,0.2552,0.2552,0.2552,0.2505,0.2501,0.2497,0,0,0,0,0,0,0.2283,0.2397,0.2413,0.2479,0.2512,0.2547,0.2552,0.2559,0.2563,0.2556,0.2554,0.2554,0.255,0.2555,0.2558,0.2528,0.2546,0.2546,0.251,0.2506,0.2503,0.2499,0.2544,0,0,0,0,0,0.2289,0.2362,0.2432,0.2474,0.2497,0.2521,0.2534,0.2547,0.2565,0.2565,0.2565,0.256,0.2552,0.2545,0.2551,0.2542,0.2565,0.252,0.2517,0.2514,0.2513,0.2558,0.2559,0.2551,0.2551,0.2551,0,0,0.2267,0.2341,0.2375,0.2466,0.2487,0.2503,0.2526,0.2556,0.2548,0.2566,0.2548,0.2558,0.2553,0.2539,0.2535,0.2535,0.2522,0.2513,0.251,0.2512,0.2558,0.2559,0.256,0.2551,0.2551,0.2551,0,0,0.2259,0.2331,0.2382,0.2415,0.2475,0.2492,0.2502,0.2543,0.2542,0.2549,0.2545,0.2546,0.2539,0.2524,0.2513,0.2501,0.2513,0.2492,0.2458,0.2501,0.2502,0.2504,0.2506,0.2508,0.2479,0.2478,0.2478,0,0.2212,0.2303,0.2389,0.2426,0.2437,0.2483,0.249,0.2499,0.253,0.252,0.2539,0.2526,0.2527,0.249,0.248,0.2489,0.2512,0.2468,0.2497,0.2499,0.2501,0.2504,0.2506,0.2476,0.2476,0.2477,0.2477,0,0.2242,0.2292,0.2315,0.2384,0.2402,0.2424,0.2454,0.2456,0.2461,0.2466,0.2459,0.2482,0.2469,0.2461,0.2462,0.2457,0.2465,0.2497,0.2505,0.2499,0.2501,0.2505,0.2473,0.2473,0.2474,0.2475,0,0,0.2162,0.2313,0.2308,0.2331,0.2385,0.2401,0.2384,0.2386,0.2365,0.2395,0.2374,0.2369,0.2395,0.2387,0.2397,0.2426,0.2448,0.2461,0.2465,0.2458,0.2521,0.2339,0.2326,0.2494,0.2495,0.2496,0.2506,0,0.2136,0.2222,0.2285,0.2288,0.2319,0.2341,0.232,0.232,0.2324,0.2319,0.2339,0.234,0.236,0.2366,0.2394,0.2443,0.2461,0.2441,0.2532,0.2534,0.2369,0.2325,0.2144,0.2122,0.251,0.251,0.2511,0,0.2116,0.2186,0.2228,0.2271,0.2278,0.2268,0.2242,0.2235,0.223,0.224,0.2246,0.228,0.2296,0.2347,0.2413,0.2403,0.2455,0.2499,0.2502,0.2353,0.2359,0.2197,0.2115,0.2014,0.2517,0.2517,0.2516,0,0.204,0.2115,0.2157,0.2174,0.2235,0.2215,0.2212,0.2198,0.2184,0.2197,0.2201,0.2236,0.2259,0.2342,0.2407,0.2427,0.2494,0.2536,0.2415,0.2403,0.2274,0.2246,0.2099,0.2601,0.2601,0.2601,0.2601,0,0.1995,0.2005,0.2128,0.2149,0.214,0.2177,0.2137,0.214,0.2136,0.212,0.2164,0.2166,0.2271,0.2312,0.2393,0.2378,0.248,0.2386,0.2388,0.2245,0.2216,0.2144,0.213,0.2601,0.2601,0.2601,0.2601,0,0.1904,0.1996,0.2041,0.2117,0.2121,0.2108,0.2097,0.2078,0.2081,0.2067,0.2077,0.2112,0.2139,0.2213,0.2326,0.2318,0.2258,0.2347,0.2135,0.2107,0.1839,0.183,0.169,0.1666,0.2186,0.2181,0.2177,0,0.1873,0.1907,0.2012,0.2033,0.2063,0.2052,0.2043,0.2046,0.203,0.2029,0.2027,0.2032,0.2005,0.2033,0.2034,0.2062,0.209,0.1913,0.19,0.1755,0.1752,0.1759,0.1754,0.1722,0.1714,0.1708,0.1704,0,0.1808,0.1865,0.1931,0.1988,0.2,0.1987,0.1976,0.1948,0.1954,0.1933,0.1895,0.1864,0.1818,0.1694,0.168,0.1713,0.1733,0.1784,0.172,0.1412,0.1331,0.1331,0.1774,0.1651,0.1656,0.166,0.1663,0.1665,0.1753,0.1793,0.1904,0.1932,0.1948,0.1914,0.1855,0.1842,0.1786,0.1703,0.1756,0.1616,0.1448,0.1349,0.1368,0.1179,0.1341,0.113,0.1146,0.118,0.1083,0.1353,0.1172,0.1175,0.1177,0.1179,0.118,0,0.1683,0.1763,0.1824,0.1866,0.1844,0.1862,0.1806,0.1717,0.1614,0.1535,0.1461,0.117,0.0974,0.0862,0.0633,0.0554,0.0642,0.055,0.0556,0.0605,0.0901,0.08,0.0423,0.0423,0.0423,0.0423,0.0423,0.0423,0.1663,0.172,0.1777,0.1754,0.1752,0.1651,0.1589,0.1472,0.1367,0.1106,0.0887,0.0799,0.055,0.0247,0.0055,0.0085,0.0135,0.006,0.0199,0.0404,0.0462,0.0518,0.0419,-0.0033,-0.0033,-0.0132,-0.0134,-0.0135]},{"header":{"parameterUnit":"m.s-1","parameterCategory":2,"la1":30.2991,"la2":30.254,"lo1":-89.0895,"lo2":-89.0444,"dy":0.0017,"dx":0.0017,"nx":28,"ny":28,"refTime":"2025-05-23T09:00:00:Z","depth":"0","parameterNumber":3,"parameterNumberName":"V-component_of_CURRENTS"},"data":[0,0,0,0,0,0,0,0,0,0,0,0,0,0,0,0,0,0,0,0,0,0,0,0,0,0,0,0,0,0,0,0,0,0,0,0,0,0,0,0,0,0,0,0,0,0,0,0,0,0,0,0,0,0,0,0,0,0,0.0266,0.0265,0,0.0235,0.0235,0.0234,0.0215,0.0214,0.0214,0.0214,0.0204,0.0204,0.0204,0,0,0,0,0,0,0,0,0,0,0,0,0,0.033,0.0329,0.0266,0.0265,0.0265,0.0235,0.0235,0.0234,0.0215,0.0214,0.0214,0.0214,0.0204,0.0204,0.0204,0,0,0,0,0,0,0,0,0,0,0,0,0,0.0303,0.0329,0.0266,0.025,0.0248,0.0235,0.0235,0.0234,0.0215,0.0214,0.0214,0.0214,0.0204,0.0204,0.0204,0.0212,0,0,0.0204,0.0204,0,0,0,0,0,0,0,0,0.0304,0.03,0.0253,0.0251,0.0249,0.0227,0.0253,0.0227,0.0215,0.0229,0.0214,0.0213,0.0213,0.0212,0.0209,0.0211,0.0211,0.0204,0.0204,0.0204,0.0204,0,0,0,0,0,0,0,0.0306,0.0302,0.0255,0.0252,0.025,0.0252,0.0248,0.0249,0.0225,0.0228,0.0226,0.022,0.0212,0.0209,0.0209,0.0211,0.0204,0.0204,0.0204,0.0204,0.0211,0.0212,0,0,0,0,0,0,0.0306,0.0303,0.0256,0.0254,0.0274,0.0251,0.0246,0.0236,0.0225,0.0222,0.022,0.0219,0.0209,0.0209,0.0208,0.0226,0.0204,0.0204,0.0204,0.0211,0.0211,0.0212,0,0,0,0,0,0,0.0307,0.0302,0.0257,0.0277,0.0271,0.025,0.0239,0.0235,0.0231,0.0218,0.0216,0.0219,0.0209,0.0208,0.0217,0.0225,0.0204,0.0204,0.0211,0.0211,0.0211,0.0255,0,0,0,0,0,0,0.0309,0.0302,0.0301,0.0277,0.027,0.0252,0.0239,0.0235,0.0227,0.0225,0.0217,0.0215,0.0209,0.0217,0.0217,0.0224,0.0204,0.0211,0.0211,0.0211,0.0253,0.0257,0.026,0,0,0,0,0,0.0311,0.0312,0.0301,0.0296,0.0267,0.0252,0.0249,0.0234,0.0227,0.0229,0.0228,0.0216,0.0219,0.0218,0.0217,0.0225,0.021,0.0211,0.0211,0.0252,0.0256,0.026,0,0,0,0,0,0,0.0336,0.0309,0.0297,0.0288,0.0271,0.0248,0.0249,0.0237,0.0236,0.0236,0.0226,0.0225,0.0235,0.0223,0.0222,0.0226,0.021,0.021,0.0241,0.0244,0.0248,0.0266,0.0204,0,0,0,0,0,0.034,0.0337,0.0307,0.0302,0.0294,0.0272,0.0266,0.0253,0.0245,0.0243,0.0238,0.0233,0.0236,0.0235,0.0235,0.0241,0.0256,0.0242,0.0246,0.0248,0.0262,0.0315,0.0325,0.0213,0.0213,0.0213,0,0,0.035,0.0334,0.0333,0.0308,0.0295,0.0287,0.0268,0.0258,0.0258,0.0244,0.0252,0.0249,0.0241,0.0251,0.0252,0.0242,0.0282,0.0249,0.0252,0.0264,0.0317,0.0328,0.0338,0.0214,0.0213,0.0213,0,0,0.0365,0.0351,0.035,0.0337,0.0315,0.0303,0.03,0.0278,0.0277,0.028,0.0273,0.0282,0.0274,0.028,0.028,0.03,0.0301,0.0287,0.0318,0.0368,0.0379,0.0388,0.0401,0.0412,0.0285,0.0285,0.0285,0,0.0378,0.0365,0.0349,0.034,0.0334,0.0311,0.0307,0.0304,0.0291,0.0302,0.0287,0.0306,0.0293,0.0323,0.0322,0.0311,0.0328,0.0305,0.0376,0.0386,0.0395,0.0406,0.0417,0.0287,0.0287,0.0287,0.0286,0,0.0384,0.0375,0.0374,0.0357,0.0352,0.0346,0.0333,0.0338,0.0333,0.0332,0.0361,0.0357,0.0372,0.036,0.0345,0.0395,0.0382,0.038,0.0373,0.0409,0.0417,0.0428,0.029,0.0289,0.0289,0.0288,0,0,0.0409,0.0384,0.0384,0.038,0.0359,0.0358,0.0367,0.0374,0.0399,0.0395,0.0438,0.0431,0.0438,0.0439,0.0428,0.0459,0.0518,0.0443,0.0445,0.0467,0.0612,0.0606,0.0616,0.0537,0.054,0.0542,0.0586,0,0.0417,0.041,0.0396,0.0398,0.0393,0.0385,0.0401,0.041,0.0424,0.0464,0.0476,0.0507,0.0466,0.0483,0.051,0.0525,0.0551,0.0505,0.0564,0.0565,0.0566,0.0631,0.0622,0.0663,0.0596,0.0598,0.0599,0,0.0426,0.042,0.042,0.0422,0.0422,0.0427,0.0462,0.0471,0.0517,0.0534,0.0572,0.0587,0.0628,0.0595,0.0649,0.0624,0.0622,0.0626,0.0628,0.062,0.0581,0.0618,0.0685,0.0688,0.0616,0.0614,0.0613,0,0.0453,0.0441,0.0446,0.0442,0.0441,0.0455,0.0463,0.0497,0.0527,0.0589,0.0633,0.0677,0.0716,0.0737,0.0724,0.0702,0.0787,0.0759,0.0748,0.0745,0.0749,0.0744,0.084,0.0812,0.0811,0.0811,0.0811,0,0.0464,0.0468,0.0461,0.0464,0.0489,0.0481,0.0525,0.0543,0.0597,0.0658,0.0676,0.0744,0.076,0.08,0.0776,0.0799,0.083,0.0777,0.0776,0.0759,0.0754,0.0764,0.0774,0.0813,0.0813,0.0812,0.0812,0,0.0483,0.0475,0.0485,0.0492,0.0498,0.0519,0.0553,0.0597,0.0635,0.0724,0.0752,0.0817,0.0868,0.0864,0.09,0.0873,0.0906,0.0877,0.0834,0.0829,0.0822,0.0834,0.0956,0.0998,0.0891,0.0891,0.0892,0,0.0488,0.0495,0.0511,0.0527,0.0528,0.0555,0.0587,0.0617,0.067,0.0771,0.0832,0.09,0.0957,0.0993,0.0963,0.0942,0.0939,0.0912,0.0874,0.0848,0.0862,0.0872,0.09,0.088,0.088,0.0881,0.0881,0,0.0503,0.0513,0.0525,0.0559,0.059,0.0625,0.0671,0.0717,0.0776,0.0849,0.0947,0.0996,0.1032,0.1026,0.0992,0.0969,0.0949,0.0915,0.0923,0.0905,0.0893,0.0922,0.0791,0.0882,0.0882,0.0882,0.0882,0.0882,0.0519,0.0537,0.0563,0.0596,0.0638,0.0697,0.0736,0.0797,0.0878,0.0976,0.1017,0.1062,0.1051,0.1014,0.1003,0.0952,0.0981,0.0919,0.0945,0.0963,0.0996,0.0853,0.0923,0.0923,0.0923,0.0923,0.0923,0,0.0531,0.0558,0.0599,0.0647,0.0707,0.0718,0.08,0.0841,0.0935,0.0992,0.1058,0.1029,0.1039,0.1001,0.0956,0.0965,0.0982,0.0968,0.0981,0.1017,0.0914,0.0902,0.0931,0.0931,0.0931,0.0931,0.0931,0.0931,0.0538,0.0577,0.0603,0.0699,0.0742,0.0815,0.0862,0.0916,0.0953,0.0979,0.0951,0.0937,0.0891,0.096,0.0975,0.0986,0.1045,0.1038,0.1092,0.0991,0.0988,0.0984,0.0975,0.1019,0.1019,0.1181,0.1182,0.1183]}],[{"header":{"parameterUnit":"m.s-1","parameterCategory":2,"la1":30.2991,"la2":30.254,"lo1":-89.0895,"lo2":-89.0444,"dy":0.0017,"dx":0.0017,"nx":28,"ny":28,"refTime":"2025-05-23T09:00:00:Z","depth":"2","parameterNumber":2,"parameterNumberName":"U-component_of_CURRENTS"},"data":[0,0,0,0,0,0,0,0,0,0,0,0,0,0,0,0,0,0,0,0,0,0,0,0,0,0,0,0,0,0,0,0,0,0,0,0,0,0,0,0,0,0,0,0,0,0,0,0,0,0,0,0,0,0,0,0,0,0,0.1446,0.1447,0,0.149,0.149,0.1491,0.1532,0.1533,0.1534,0.1535,0.1681,0.1684,0.1687,0,0,0,0,0,0,0,0,0,0,0,0,0,0.1453,0.1452,0.1446,0.1447,0.1448,0.149,0.149,0.1491,0.1532,0.1533,0.1535,0.1536,0.168,0.1684,0.1687,0,0,0,0,0,0,0,0,0,0,0,0,0,0.1463,0.1451,0.1445,0.1478,0.1482,0.149,0.149,0.1491,0.1532,0.1533,0.1535,0.1536,0.1679,0.1683,0.1688,0.1683,0,0,0.1701,0.1703,0,0,0,0,0,0,0,0,0.1462,0.1462,0.1472,0.1476,0.148,0.1512,0.1547,0.1562,0.1531,0.1507,0.1535,0.1537,0.1637,0.1645,0.164,0.169,0.1697,0.1701,0.1704,0.1706,0.1707,0,0,0,0,0,0,0,0.1462,0.1461,0.1458,0.1473,0.1478,0.151,0.1512,0.1549,0.156,0.1509,0.1513,0.1527,0.1639,0.1635,0.1644,0.1699,0.1701,0.1705,0.1708,0.171,0.1892,0.1894,0,0,0,0,0,0,0.1462,0.1459,0.1456,0.1459,0.1481,0.1509,0.1511,0.1496,0.1557,0.1569,0.1526,0.1529,0.1627,0.1639,0.165,0.1747,0.1706,0.171,0.1713,0.189,0.1893,0.1895,0,0,0,0,0,0,0.1462,0.146,0.1455,0.1467,0.147,0.1507,0.149,0.1496,0.1519,0.157,0.1583,0.1546,0.1629,0.1644,0.1695,0.175,0.1712,0.1716,0.1887,0.1891,0.1894,0.188,0,0,0,0,0,0,0.1461,0.1459,0.1453,0.1466,0.1469,0.147,0.1489,0.1496,0.1526,0.1531,0.1592,0.1605,0.1631,0.1688,0.1699,0.1755,0.1719,0.1885,0.1889,0.1893,0.1878,0.1882,0.1887,0,0,0,0,0,0.1461,0.1453,0.1452,0.1453,0.1457,0.1471,0.1474,0.1504,0.1526,0.153,0.1571,0.1604,0.1725,0.1691,0.1704,0.1764,0.1883,0.1888,0.1893,0.1876,0.1882,0.1886,0,0,0,0,0,0,0.1422,0.1457,0.1456,0.1448,0.1462,0.148,0.1497,0.1513,0.1545,0.1562,0.1606,0.1621,0.1697,0.1728,0.169,0.1834,0.1821,0.1828,0.1804,0.181,0.1814,0.1793,0.1723,0,0,0,0,0,0.1415,0.1441,0.1449,0.1445,0.1454,0.1475,0.1489,0.1507,0.1537,0.1553,0.1597,0.166,0.1722,0.176,0.1811,0.1869,0.1885,0.1928,0.1932,0.1935,0.193,0.1995,0.2004,0.1912,0.1912,0.1912,0,0,0.1413,0.1424,0.1445,0.1445,0.1459,0.1472,0.1487,0.1512,0.1534,0.1566,0.1618,0.1671,0.174,0.181,0.1851,0.1845,0.1969,0.1942,0.1943,0.1937,0.2001,0.201,0.2018,0.1915,0.1914,0.1914,0,0,0.1414,0.1413,0.1439,0.145,0.1475,0.1485,0.1497,0.1525,0.1549,0.1592,0.1639,0.1707,0.1794,0.1848,0.189,0.195,0.1987,0.1999,0.2006,0.207,0.2077,0.2084,0.2096,0.2104,0.2005,0.2005,0.2005,0,0.1427,0.1413,0.1444,0.1454,0.1468,0.1494,0.1504,0.1528,0.1573,0.1598,0.1616,0.176,0.1811,0.1908,0.1933,0.196,0.1987,0.1973,0.2072,0.2079,0.2086,0.2097,0.2106,0.2005,0.2005,0.2005,0.2005,0,0.142,0.1427,0.1438,0.1465,0.1482,0.1495,0.1528,0.1555,0.1594,0.1625,0.1723,0.1787,0.1881,0.1922,0.1943,0.2042,0.204,0.2062,0.2046,0.2094,0.2103,0.2112,0.2005,0.2005,0.2005,0.2005,0,0,0.1414,0.1444,0.1442,0.1456,0.1486,0.1499,0.1538,0.1574,0.1612,0.1679,0.1741,0.185,0.1901,0.1952,0.2012,0.2061,0.2122,0.2084,0.2087,0.2072,0.2236,0.1999,0.1987,0.217,0.2172,0.2174,0.2213,0,0.1402,0.1424,0.1434,0.1457,0.1473,0.1506,0.1539,0.1585,0.1635,0.1702,0.1791,0.1884,0.1914,0.198,0.2035,0.2105,0.2151,0.2107,0.2212,0.2214,0.198,0.1991,0.1802,0.1801,0.2222,0.2224,0.2225,0,0.1369,0.1393,0.1419,0.146,0.1468,0.1493,0.1547,0.1582,0.1674,0.1722,0.1824,0.1901,0.2006,0.2027,0.2155,0.2131,0.2186,0.2222,0.2226,0.2013,0.1994,0.183,0.1803,0.224,0.2239,0.2238,0.2237,0,0.1337,0.1368,0.1392,0.1407,0.1466,0.1491,0.1523,0.1597,0.1638,0.1755,0.1807,0.1936,0.2017,0.211,0.2177,0.2194,0.2279,0.2317,0.2151,0.2135,0.1994,0.1958,0.2408,0.2408,0.2408,0.2408,0.2408,0,0.1312,0.1332,0.1386,0.1409,0.1442,0.1485,0.1536,0.1585,0.1669,0.1721,0.1835,0.1895,0.2047,0.2112,0.218,0.2151,0.229,0.2132,0.2127,0.1978,0.1943,0.2348,0.234,0.241,0.2409,0.2409,0.2409,0,0.1292,0.1325,0.1359,0.1418,0.1439,0.147,0.1542,0.1574,0.1655,0.173,0.1777,0.1888,0.1946,0.2037,0.2159,0.2118,0.2143,0.2111,0.188,0.1842,0.1963,0.1955,0.1934,0.1926,0.1919,0.1913,0.1908,0,0.1289,0.1304,0.1365,0.1383,0.1417,0.1468,0.1498,0.1575,0.1603,0.1706,0.1729,0.1812,0.1815,0.1837,0.1778,0.1776,0.1988,0.1622,0.1598,0.1915,0.1915,0.1918,0.1919,0.143,0.1422,0.1415,0.141,0,0.1274,0.1296,0.1322,0.1362,0.1396,0.1437,0.1482,0.1496,0.1573,0.1602,0.1629,0.1634,0.1582,0.1438,0.1371,0.1371,0.159,0.1472,0.1918,0.1531,0.143,0.1432,0.1453,0.1349,0.1355,0.136,0.1363,0.1365,0.1256,0.1259,0.1282,0.1318,0.1363,0.1392,0.1392,0.139,0.1397,0.1375,0.1431,0.1328,0.1289,0.1018,0.0983,0.0959,0.1094,0.1116,0.1144,0.1178,0.1063,0.095,0.0758,0.076,0.0763,0.0765,0.0766,0,0.1208,0.1224,0.1232,0.1268,0.1286,0.1352,0.1364,0.1312,0.1245,0.1168,0.1108,0.0875,0.0696,0.0733,0.0536,0.0475,0.0549,0.0528,0.066,0.0715,0.0766,0.064,0.0218,0.0217,0.0217,0.0216,0,0,0.118,0.1163,0.1156,0.1172,0.1223,0.1224,0.1223,0.1128,0.1032,0.0831,0.0696,0.0611,0.0621,0.0392,0.0345,0.0274,0.0515,0.0249,0.0673,0.0881,0.0932,0.1064,0.0922,0,0,0,0,0]},{"header":{"parameterUnit":"m.s-1","parameterCategory":2,"la1":30.2991,"la2":30.254,"lo1":-89.0895,"lo2":-89.0444,"dy":0.0017,"dx":0.0017,"nx":28,"ny":28,"refTime":"2025-05-23T09:00:00:Z","depth":"2","parameterNumber":3,"parameterNumberName":"V-component_of_CURRENTS"},"data":[0,0,0,0,0,0,0,0,0,0,0,0,0,0,0,0,0,0,0,0,0,0,0,0,0,0,0,0,0,0,0,0,0,0,0,0,0,0,0,0,0,0,0,0,0,0,0,0,0,0,0,0,0,0,0,0,0,0,-0.0217,-0.0218,0,-0.033,-0.0331,-0.0332,-0.0391,-0.0391,-0.0391,-0.0392,-0.0408,-0.0408,-0.0408,0,0,0,0,0,0,0,0,0,0,0,0,0,-0.006,-0.0062,-0.0217,-0.0219,-0.022,-0.033,-0.0331,-0.0332,-0.0391,-0.0391,-0.0391,-0.0392,-0.0408,-0.0408,-0.0408,0,0,0,0,0,0,0,0,0,0,0,0,0,-0.0143,-0.0063,-0.0216,-0.0265,-0.0271,-0.033,-0.0331,-0.0333,-0.039,-0.0391,-0.0392,-0.0392,-0.0408,-0.0408,-0.0408,-0.0398,0,0,-0.0409,-0.0409,0,0,0,0,0,0,0,0,-0.0138,-0.0148,-0.0256,-0.0262,-0.0268,-0.035,-0.0282,-0.0351,-0.039,-0.0341,-0.0392,-0.0392,-0.0381,-0.0384,-0.04,-0.0398,-0.0399,-0.0409,-0.0409,-0.0409,-0.0409,0,0,0,0,0,0,0,-0.0132,-0.0143,-0.0258,-0.0258,-0.0265,-0.0284,-0.0296,-0.0296,-0.0352,-0.0346,-0.0351,-0.0369,-0.0384,-0.04,-0.0401,-0.0399,-0.0409,-0.0409,-0.0409,-0.0409,-0.0374,-0.0373,0,0,0,0,0,0,-0.0124,-0.0138,-0.0255,-0.0262,-0.0207,-0.0287,-0.03,-0.032,-0.0355,-0.0362,-0.0368,-0.0371,-0.04,-0.0401,-0.0402,-0.0383,-0.0409,-0.0409,-0.0409,-0.0375,-0.0374,-0.0373,0,0,0,0,0,0,-0.012,-0.0133,-0.025,-0.0205,-0.0222,-0.0289,-0.0311,-0.0322,-0.0351,-0.0374,-0.0379,-0.0387,-0.04,-0.0401,-0.0411,-0.0384,-0.0409,-0.0409,-0.0377,-0.0375,-0.0374,-0.035,0,0,0,0,0,0,-0.0115,-0.0131,-0.0138,-0.0205,-0.0224,-0.0279,-0.0312,-0.0324,-0.0362,-0.0367,-0.0391,-0.0393,-0.0401,-0.0411,-0.0411,-0.0385,-0.0409,-0.0378,-0.0376,-0.0374,-0.0352,-0.0348,-0.0344,0,0,0,0,0,-0.0109,-0.0116,-0.0138,-0.0152,-0.0233,-0.0279,-0.0289,-0.0337,-0.0362,-0.0366,-0.0392,-0.0393,-0.0398,-0.0411,-0.0411,-0.0384,-0.0379,-0.0376,-0.0374,-0.0354,-0.0349,-0.0344,0,0,0,0,0,0,-0.0053,-0.0125,-0.015,-0.0179,-0.0223,-0.029,-0.0302,-0.034,-0.0366,-0.0371,-0.0394,-0.0397,-0.0392,-0.0392,-0.0406,-0.0367,-0.0382,-0.038,-0.0366,-0.0361,-0.0358,-0.0337,-0.0409,0,0,0,0,0,-0.0044,-0.0068,-0.0135,-0.0158,-0.0177,-0.024,-0.0266,-0.0301,-0.0339,-0.0353,-0.0378,-0.0386,-0.038,-0.0378,-0.0378,-0.0364,-0.0346,-0.034,-0.0337,-0.0333,-0.0315,-0.0257,-0.0245,-0.0366,-0.0366,-0.0366,0,0,-0.0034,-0.0072,-0.009,-0.0147,-0.0185,-0.0214,-0.0256,-0.0293,-0.0318,-0.0346,-0.0377,-0.038,-0.0376,-0.0362,-0.0357,-0.036,-0.0296,-0.0331,-0.0328,-0.0311,-0.0253,-0.0241,-0.0231,-0.0364,-0.0364,-0.0365,0,0,-0.002,-0.0053,-0.0069,-0.0101,-0.0156,-0.0192,-0.0204,-0.0272,-0.0298,-0.0329,-0.0345,-0.0332,-0.0351,-0.0329,-0.0322,-0.0293,-0.0283,-0.0291,-0.0249,-0.0193,-0.0182,-0.0172,-0.0164,-0.0153,-0.0283,-0.0283,-0.0282,0,-0.0003,-0.0037,-0.0078,-0.0098,-0.0126,-0.0182,-0.0205,-0.0236,-0.03,-0.0309,-0.0333,-0.0319,-0.0327,-0.0275,-0.0272,-0.0281,-0.0265,-0.0271,-0.0187,-0.0177,-0.0167,-0.016,-0.0149,-0.0281,-0.0281,-0.0281,-0.0282,0,-0.0006,-0.0031,-0.0039,-0.0086,-0.0113,-0.014,-0.0191,-0.0215,-0.0255,-0.0284,-0.0263,-0.026,-0.0236,-0.0238,-0.0254,-0.0178,-0.0197,-0.0195,-0.0199,-0.0153,-0.015,-0.0138,-0.0279,-0.028,-0.028,-0.028,0,0,0.002,-0.0034,-0.0037,-0.0055,-0.0112,-0.0135,-0.016,-0.0194,-0.0194,-0.0223,-0.0195,-0.0188,-0.0168,-0.0154,-0.0143,-0.0104,-0.0048,-0.0122,-0.012,-0.0114,0.0048,0.005,0.0061,-0.0028,-0.0025,-0.0023,0.0012,0,0.0026,-0.0002,-0.0034,-0.0061,-0.0082,-0.0125,-0.0142,-0.0171,-0.0188,-0.0168,-0.0139,-0.0101,-0.0138,-0.0096,-0.0063,-0.0036,-0.0012,-0.006,0.0005,0.0006,0.0003,0.0078,0.0029,0.006,0.0023,0.0025,0.0027,0,0.0029,0.001,-0.0016,-0.0051,-0.0062,-0.0082,-0.0099,-0.0119,-0.0101,-0.0099,-0.0042,-0.0014,0.0065,0.003,0.0103,0.0075,0.0063,0.0064,0.0066,0.0076,0.0032,0.0016,0.0082,0.0045,0.0044,0.0043,0.0041,0,0.0061,0.0023,0.0005,-0.0011,-0.0056,-0.0068,-0.0089,-0.0098,-0.0087,-0.0022,0.0031,0.0101,0.0182,0.0194,0.0193,0.0162,0.0258,0.0219,0.0199,0.0196,0.0174,0.0166,0.0263,0.0263,0.0263,0.0263,0.0263,0,0.007,0.0059,0.0019,0.0007,0.0,-0.004,-0.0031,-0.0038,0.0003,0.0055,0.0094,0.0183,0.0232,0.0288,0.0247,0.0274,0.0307,0.0231,0.0229,0.0176,0.0168,0.0174,0.0163,0.0264,0.0264,0.0264,0.0263,0,0.0096,0.0068,0.0053,0.0017,0.001,0.0004,-0.0002,0.002,0.0054,0.0146,0.0192,0.0283,0.0357,0.037,0.0407,0.0368,0.037,0.0353,0.0266,0.0255,0.0243,0.0233,0.0353,0.0353,0.0354,0.0355,0.0355,0,0.0105,0.0097,0.007,0.0069,0.005,0.0041,0.0043,0.0047,0.0084,0.02,0.0264,0.0378,0.0455,0.0507,0.0453,0.0418,0.0401,0.0355,0.0297,0.0278,0.0264,0.0253,0.0242,0.0251,0.025,0.025,0.025,0,0.0126,0.0115,0.0103,0.0103,0.0101,0.0109,0.0116,0.0155,0.0192,0.0283,0.0396,0.0473,0.0515,0.05,0.047,0.0416,0.0364,0.0349,0.04,0.0241,0.0188,0.0171,0.0163,0.0247,0.0247,0.0248,0.0248,0.0248,0.0147,0.0147,0.0134,0.0138,0.0149,0.0178,0.0198,0.0242,0.032,0.0446,0.0474,0.0557,0.0525,0.0475,0.0436,0.0363,0.0347,0.0304,0.0303,0.0303,0.029,0.0243,0.0306,0.0307,0.0307,0.0308,0.0308,0,0.0168,0.0164,0.017,0.018,0.0214,0.0206,0.0253,0.0295,0.0402,0.0476,0.0564,0.0515,0.0509,0.046,0.0338,0.0299,0.0266,0.0293,0.0249,0.025,0.0251,0.0235,0.0238,0.0238,0.0238,0.0239,0,0,0.0175,0.0182,0.0184,0.0239,0.0257,0.0295,0.0328,0.0411,0.0455,0.0527,0.0539,0.0575,0.0496,0.0414,0.0348,0.0294,0.0285,0.0278,0.0326,0.0278,0.0282,0.0235,0.0208,0,0,0,0,0]}],[{"header":{"parameterUnit":"m.s-1","parameterCategory":2,"la1":30.2991,"la2":30.254,"lo1":-89.0895,"lo2":-89.0444,"dy":0.0017,"dx":0.0017,"nx":28,"ny":28,"refTime":"2025-05-23T09:00:00:Z","depth":"4","parameterNumber":2,"parameterNumberName":"U-component_of_CURRENTS"},"data":[0,0,0,0,0,0,0,0,0,0,0,0,0,0,0,0,0,0,0,0,0,0,0,0,0,0,0,0,0,0,0,0,0,0,0,0,0,0,0,0,0,0,0,0,0,0,0,0,0,0,0,0,0,0,0,0,0,0,-0.0259,-0.026,0,-0.0266,-0.0266,-0.0266,-0.0257,-0.0257,-0.0257,-0.0257,-0.0265,-0.0265,-0.0265,0,0,0,0,0,0,0,0,0,0,0,0,0,-0.0061,-0.0066,-0.0259,-0.026,-0.026,-0.0266,-0.0266,-0.0266,-0.0257,-0.0257,-0.0257,-0.0256,-0.0265,-0.0265,-0.0265,0,0,0,0,0,0,0,0,0,0,0,0,0,-0.0115,-0.0068,-0.0259,-0.0257,-0.0257,-0.0266,-0.0266,-0.0266,-0.0257,-0.0257,-0.0257,-0.0256,-0.0264,-0.0265,-0.0266,-0.0274,0,0,-0.0267,-0.0268,0,0,0,0,0,0,0,0,-0.0112,-0.0122,-0.0257,-0.0257,-0.0257,-0.0262,-0.0199,-0.0269,-0.0257,-0.0256,-0.0257,-0.0256,-0.0265,-0.0266,-0.0265,-0.0275,-0.0275,-0.0267,-0.0268,-0.0268,-0.0268,0,0,0,0,0,0,0,-0.0108,-0.012,-0.026,-0.0258,-0.0258,-0.0195,-0.0204,-0.0211,-0.0261,-0.0256,-0.0255,-0.0259,-0.0265,-0.0265,-0.0265,-0.0275,-0.0267,-0.0268,-0.0268,-0.0268,-0.0193,-0.0191,0,0,0,0,0,0,-0.0122,-0.0119,-0.026,-0.0261,-0.0184,-0.02,-0.0209,-0.0259,-0.026,-0.0261,-0.0259,-0.0258,-0.0264,-0.0265,-0.0266,-0.0193,-0.0268,-0.0268,-0.0269,-0.0196,-0.0193,-0.019,0,0,0,0,0,0,-0.0118,-0.0136,-0.026,-0.0187,-0.0199,-0.0205,-0.026,-0.026,-0.0259,-0.0263,-0.0263,-0.0259,-0.0264,-0.0265,-0.025,-0.0197,-0.0269,-0.0269,-0.0198,-0.0195,-0.0191,-0.0102,0,0,0,0,0,0,-0.0113,-0.0136,-0.017,-0.019,-0.0204,-0.0267,-0.026,-0.026,-0.0263,-0.0262,-0.0263,-0.0264,-0.0263,-0.0249,-0.0251,-0.0199,-0.027,-0.0201,-0.0197,-0.0193,-0.0107,-0.0095,-0.0085,0,0,0,0,0,-0.0107,-0.0163,-0.0173,-0.0189,-0.0255,-0.0268,-0.0269,-0.0268,-0.0263,-0.0265,-0.0248,-0.0264,-0.0221,-0.0248,-0.0251,-0.0197,-0.0203,-0.0198,-0.0193,-0.0112,-0.0098,-0.0085,0,0,0,0,0,0,-0.0076,-0.0168,-0.0179,-0.0256,-0.0259,-0.0267,-0.0273,-0.0269,-0.0259,-0.0256,-0.0252,-0.0251,-0.021,-0.0222,-0.0252,-0.016,-0.0208,-0.0203,-0.0146,-0.0132,-0.0121,-0.0114,-0.027,0,0,0,0,0,-0.0092,-0.0168,-0.0205,-0.0255,-0.0266,-0.0266,-0.027,-0.027,-0.0266,-0.0262,-0.0246,-0.0224,-0.0191,-0.0179,-0.0164,-0.0132,-0.016,-0.0093,-0.0081,-0.0072,-0.0065,-0.0055,-0.0043,-0.0173,-0.0173,-0.0173,0,0,-0.0088,-0.0147,-0.0186,-0.0254,-0.0259,-0.027,-0.0268,-0.0279,-0.0259,-0.0265,-0.0223,-0.0195,-0.0175,-0.012,-0.0103,-0.0125,-0.0052,-0.0065,-0.0057,-0.0056,-0.0049,-0.0036,-0.0026,-0.0169,-0.017,-0.0171,0,0,-0.0107,-0.0174,-0.0234,-0.0247,-0.0272,-0.0272,-0.0276,-0.0275,-0.0247,-0.0206,-0.0187,-0.0133,-0.0093,-0.0056,-0.0034,0.004,0.0004,0.006,0.0125,0.0136,0.0146,0.0154,0.0118,0.0123,0.007,0.007,0.0071,0,-0.0078,-0.0183,-0.0236,-0.0272,-0.0275,-0.0274,-0.0286,-0.026,-0.0237,-0.0193,-0.0182,-0.007,-0.0057,0.0023,0.0075,0.0065,0.0052,0.0071,0.0149,0.0157,0.0164,0.0125,0.0129,0.0075,0.0075,0.0074,0.0074,0,-0.0137,-0.02,-0.0223,-0.0284,-0.0286,-0.0299,-0.0277,-0.024,-0.0192,-0.0148,-0.0045,-0.0,0.0076,0.0103,0.0121,0.0203,0.0169,0.0156,0.011,0.0182,0.0136,0.0139,0.0083,0.0081,0.0079,0.0078,0,0,-0.0093,-0.0242,-0.0241,-0.0269,-0.0295,-0.0298,-0.0251,-0.02,-0.014,-0.0068,0.0022,0.0125,0.0178,0.0207,0.0242,0.0269,0.0315,0.0257,0.0255,0.0211,0.0315,0.0237,0.0231,0.0326,0.0327,0.0329,0.0254,0,-0.0097,-0.0208,-0.0256,-0.0281,-0.0319,-0.029,-0.0235,-0.0177,-0.01,-0.0008,0.008,0.0176,0.0209,0.0275,0.0313,0.0318,0.0331,0.0335,0.0259,0.0256,0.0171,0.0236,0.0333,0.0256,0.0256,0.0257,0.0257,0,-0.0113,-0.0192,-0.0268,-0.0294,-0.0295,-0.0278,-0.0187,-0.0133,-0.0008,0.0066,0.0179,0.024,0.0336,0.034,0.0382,0.039,0.0372,0.0356,0.0352,0.0251,0.0185,0.0173,0.0261,0.026,0.026,0.026,0.0259,0,-0.0087,-0.0168,-0.0242,-0.0259,-0.0292,-0.0249,-0.0202,-0.0092,-0.0021,0.0129,0.0187,0.0301,0.0359,0.0382,0.0372,0.0398,0.0357,0.0373,0.0269,0.026,0.0307,0.0299,0.038,0.038,0.038,0.0381,0.0381,0,-0.0088,-0.0119,-0.023,-0.0269,-0.0245,-0.0232,-0.0145,-0.0066,0.0051,0.0122,0.0241,0.0287,0.0379,0.0368,0.0366,0.0309,0.0348,0.0286,0.0251,0.0344,0.0341,0.0307,0.0299,0.0378,0.0378,0.0379,0.0379,0,-0.0056,-0.015,-0.0221,-0.0272,-0.0258,-0.0222,-0.0131,-0.0065,0.0054,0.0142,0.0194,0.0286,0.0284,0.0293,0.0287,0.0278,0.0237,0.019,0.0246,0.0213,0.0137,0.0136,0.0114,0.0111,0.0109,0.0107,0.0105,0,-0.0059,-0.0121,-0.023,-0.0249,-0.0266,-0.021,-0.0164,-0.0053,0.0005,0.0114,0.0137,0.0173,0.0214,0.0143,0.0153,0.0112,0.0104,0.0089,0.0185,0.015,0.0118,0.012,0.0122,0.0101,0.01,0.0099,0.0099,0,-0.0049,-0.0114,-0.0196,-0.0259,-0.0251,-0.0235,-0.0164,-0.0124,-0.0009,0.0065,0.0114,0.0137,0.0098,0.0103,0.0049,0.0022,0.0126,0.0063,0.007,0.0161,0.0133,0.0104,0.0109,0.009,0.0091,0.0092,0.0092,0,-0.002,-0.0083,-0.0216,-0.0246,-0.026,-0.0253,-0.0214,-0.0157,-0.0087,0.0041,0.0023,0.0049,0.0083,0.0045,-0.0013,-0.0034,-0.0003,0.0036,0.0046,0.0056,0.0071,0.0029,-0.0068,0,0,0,0,0,0.002,-0.0085,-0.0166,-0.0237,-0.0258,-0.0259,-0.022,-0.0181,-0.0097,-0.0062,0.0006,-0.0021,-0.003,-0.0038,-0.0071,-0.0081,-0.0039,-0.0122,0.0003,0.0041,0.0051,0.0074,0,0,0,0,0,0,0.0028,-0.008,-0.0183,-0.0224,-0.0248,-0.0259,-0.0244,-0.0199,-0.0163,-0.0079,-0.0092,-0.0024,-0.0058,-0.0012,-0.0069,-0.0075,0.0002,-0.0112,-0.0112,0.0035,0.0044,0.0052,0.008,0,0,0,0,0]},{"header":{"parameterUnit":"m.s-1","parameterCategory":2,"la1":30.2991,"la2":30.254,"lo1":-89.0895,"lo2":-89.0444,"dy":0.0017,"dx":0.0017,"nx":28,"ny":28,"refTime":"2025-05-23T09:00:00:Z","depth":"4","parameterNumber":3,"parameterNumberName":"V-component_of_CURRENTS"},"data":[0,0,0,0,0,0,0,0,0,0,0,0,0,0,0,0,0,0,0,0,0,0,0,0,0,0,0,0,0,0,0,0,0,0,0,0,0,0,0,0,0,0,0,0,0,0,0,0,0,0,0,0,0,0,0,0,0,0,0.0382,0.0383,0,0.0447,0.0448,0.0448,0.0494,0.0495,0.0495,0.0495,0.0595,0.0597,0.0599,0,0,0,0,0,0,0,0,0,0,0,0,0,0.0289,0.029,0.0382,0.0383,0.0384,0.0447,0.0448,0.0448,0.0494,0.0495,0.0495,0.0496,0.0594,0.0597,0.06,0,0,0,0,0,0,0,0,0,0,0,0,0,0.0338,0.029,0.0382,0.0415,0.0418,0.0447,0.0448,0.0449,0.0494,0.0495,0.0495,0.0496,0.0593,0.0597,0.06,0.0608,0,0,0.061,0.0612,0,0,0,0,0,0,0,0,0.0335,0.0342,0.0409,0.0413,0.0417,0.0464,0.0451,0.0504,0.0494,0.0465,0.0495,0.0496,0.0554,0.0561,0.057,0.0613,0.0617,0.0611,0.0613,0.0614,0.0615,0,0,0,0,0,0,0,0.0332,0.0339,0.0407,0.041,0.0415,0.0423,0.0431,0.0461,0.0505,0.0467,0.0471,0.0479,0.0557,0.0567,0.0573,0.0619,0.0611,0.0614,0.0616,0.0617,0.0655,0.0654,0,0,0,0,0,0,0.0325,0.0336,0.0405,0.0409,0.0377,0.0424,0.0433,0.0447,0.0504,0.0514,0.0478,0.0481,0.0561,0.0569,0.0577,0.0609,0.0614,0.0617,0.0619,0.0656,0.0655,0.0654,0,0,0,0,0,0,0.0323,0.0331,0.0403,0.0374,0.0384,0.0425,0.0441,0.0448,0.0484,0.0512,0.0522,0.0509,0.0562,0.0572,0.0634,0.0612,0.0619,0.0622,0.0658,0.0656,0.0655,0.066,0,0,0,0,0,0,0.032,0.033,0.0356,0.0374,0.0385,0.0425,0.0441,0.0449,0.0487,0.0491,0.0542,0.055,0.0563,0.0629,0.0638,0.0617,0.0625,0.0659,0.0657,0.0655,0.0661,0.0659,0.0657,0,0,0,0,0,0.0317,0.0345,0.0357,0.0366,0.0414,0.0425,0.0432,0.0462,0.0488,0.0499,0.055,0.055,0.062,0.0634,0.0643,0.0622,0.066,0.0657,0.0655,0.0662,0.066,0.0657,0,0,0,0,0,0,0.0308,0.0353,0.0366,0.0405,0.0416,0.0433,0.0463,0.0476,0.0524,0.0543,0.0574,0.0585,0.0619,0.0624,0.0637,0.0621,0.0625,0.0625,0.0627,0.0625,0.0623,0.0624,0.0627,0,0,0,0,0,0.0319,0.0357,0.0379,0.0406,0.0424,0.0448,0.0466,0.0476,0.0511,0.0534,0.058,0.0606,0.061,0.0627,0.0643,0.0662,0.0646,0.0639,0.0637,0.0635,0.0639,0.0583,0.0576,0.0647,0.0647,0.0647,0,0,0.0314,0.035,0.0367,0.0408,0.0431,0.0453,0.0462,0.0487,0.0512,0.0538,0.0618,0.062,0.0617,0.0629,0.0639,0.0637,0.0611,0.0633,0.0632,0.0636,0.058,0.0573,0.0567,0.0645,0.0645,0.0646,0,0,0.0316,0.0367,0.0396,0.0417,0.0454,0.047,0.0482,0.052,0.0553,0.0607,0.0614,0.0616,0.0663,0.0638,0.0629,0.0626,0.0608,0.0612,0.0604,0.0549,0.0543,0.0537,0.0529,0.0522,0.0603,0.0603,0.0603,0,0.0309,0.0356,0.0399,0.0431,0.046,0.0482,0.0506,0.0535,0.0589,0.0611,0.0636,0.065,0.0658,0.0624,0.0615,0.0621,0.0603,0.0619,0.0547,0.0541,0.0535,0.0527,0.052,0.0603,0.0603,0.0603,0.0603,0,0.033,0.0371,0.0392,0.045,0.0481,0.0503,0.0545,0.0587,0.0634,0.0645,0.066,0.0661,0.0655,0.0633,0.0633,0.0572,0.0579,0.0559,0.0558,0.0529,0.0522,0.0515,0.0603,0.0603,0.0603,0.0603,0,0,0.0292,0.0389,0.0394,0.0429,0.0498,0.0515,0.0576,0.0613,0.0637,0.067,0.0681,0.0666,0.0648,0.0634,0.0604,0.0552,0.0503,0.0539,0.0536,0.0539,0.0411,0.0387,0.0377,0.0464,0.0463,0.0461,0.0431,0,0.0291,0.0355,0.0407,0.0457,0.0498,0.0551,0.0602,0.0636,0.067,0.069,0.0658,0.066,0.065,0.0633,0.0578,0.0517,0.048,0.0515,0.0431,0.043,0.0417,0.0365,0.0455,0.0426,0.0424,0.0423,0.0422,0,0.0296,0.0344,0.041,0.0483,0.0506,0.0553,0.063,0.0666,0.0688,0.0706,0.0682,0.0663,0.0602,0.0593,0.0488,0.051,0.0469,0.0424,0.0421,0.0391,0.0389,0.0453,0.0408,0.0409,0.041,0.0411,0.0412,0,0.0268,0.0339,0.0403,0.0432,0.0522,0.058,0.0632,0.0684,0.0709,0.0714,0.0701,0.0644,0.0607,0.0535,0.0464,0.0469,0.0346,0.0341,0.0289,0.029,0.0323,0.0329,0.0269,0.0269,0.0269,0.0269,0.0269,0,0.0265,0.0297,0.0408,0.0443,0.0514,0.0587,0.0652,0.069,0.0718,0.0704,0.0704,0.0646,0.0584,0.051,0.0454,0.0348,0.0341,0.0282,0.0263,0.033,0.0336,0.0319,0.0326,0.0268,0.0268,0.0268,0.0268,0,0.0232,0.03,0.0363,0.0474,0.0516,0.0576,0.0677,0.0697,0.0735,0.0709,0.0706,0.0644,0.0535,0.0483,0.0361,0.033,0.024,0.0212,0.0316,0.0306,0.0232,0.0239,0.0147,0.0146,0.0144,0.0143,0.0142,0,0.0226,0.0266,0.0381,0.0431,0.05,0.0594,0.0649,0.0712,0.0714,0.0677,0.0635,0.0555,0.0498,0.0322,0.0271,0.019,0.0176,0.0176,0.0177,0.022,0.0212,0.0221,0.0229,0.014,0.014,0.014,0.0139,0,0.0204,0.0257,0.0312,0.0411,0.0495,0.0553,0.0629,0.0612,0.0639,0.0667,0.0547,0.0477,0.0355,0.0259,0.0219,0.0151,0.0195,0.0162,0.0165,0.0166,0.021,0.0206,0.0216,0.0135,0.0136,0.0136,0.0136,0,0.0185,0.0214,0.0296,0.038,0.0457,0.0486,0.0532,0.0531,0.0537,0.0505,0.0448,0.0356,0.0327,0.0234,0.017,0.013,0.0114,0.0126,0.013,0.0135,0.0139,0.0195,0.0086,0,0,0,0,0,0.0167,0.0193,0.0257,0.0335,0.0398,0.0453,0.0495,0.0526,0.0531,0.0441,0.0455,0.034,0.0234,0.0181,0.0126,0.0139,0.011,0.0077,0.0127,0.0111,0.0116,0.0121,0,0,0,0,0,0,0.0159,0.0203,0.0234,0.0273,0.0319,0.038,0.0404,0.0417,0.0371,0.0374,0.0304,0.0341,0.0226,0.0257,0.0124,0.0114,0.0143,0.0051,0.0051,0.0108,0.0113,0.0117,0.0123,0,0,0,0,0]}]]